Location: Eckville
(52.3611°N, 114.3680°W)
Time: 23:10:17
(UTC+00:00)

Envisat - Visible Passes

Search period start: 30 May 2024 00:00
Search period end: 09 June 2024 00:00
Orbit: 762 x 764 km, 98.3° (Epoch: 30 May)

Date Brightness Start Highest point End Pass type
(mag) Time Alt. Az. Time Alt. Az. Time Alt. Az.
30 May 4.2 10:29:09 10° NNE 10:33:56 40° E 10:38:41 10° SSE visible
31 May 5.2 09:52:24 10° NE 09:56:13 21° E 10:00:00 10° SE visible
01 Jun 5.8 09:17:39 10° ENE 09:18:17 10° E 09:18:54 10° E visible
02 Jun 4.6 10:16:11 10° NNE 10:20:43 32° E 10:25:14 10° SSE visible
03 Jun 5.4 09:39:43 10° NE 09:42:56 17° E 09:46:08 10° SE visible
05 Jun 4.9 10:03:17 10° NE 10:07:29 26° E 10:11:40 10° SSE visible
06 Jun 5.6 09:27:17 10° ENE 09:29:37 13° E 09:31:56 10° ESE visible
07 Jun 4.3 10:27:10 10° NNE 10:31:57 39° E 10:36:41 10° SSE visible
08 Jun 5.2 09:50:27 10° NE 09:54:13 20° E 09:57:57 10° SE visible
